Погода в Мистолово

Россия / Санкт-Петербург и Ленинградская область     60°07′05″N   30°24′19″E
темп.,
°C
ветер,
м/с
пор.,
м/с
влажн.,
%
обл.,
%
осадки,
мм/ч
давл.,
гПа
погр.,
м
3 марта, ср
ср300:00−1зсз411880 0.0 1017398
03:00−1зсз511901 0.0 1017451
06:00−2з4109436 0.0 1015370
09:00−2з5119156 0.0 1015483
12:000з6118683 0.0 1012553
15:00+1з7137891 0.0 1010843
18:00+1з61391100 0.4 1005848
21:00+1зсз51195100 0.9 1003856
4 марта, чт
чт400:00−1сз4118697 2.0 1001846
03:00−3зсз4117748 2.0 1003557
06:00−4зсз310840 0.0 1003452
09:00−4зсз37870 0.0 1003412
12:00−2сз247759 0.0 1003623
15:00−3сз368679 0.3 1004588
18:00−4ссз4778100 0.3 1004872
21:00−5сз398094 0.3 1005674
5 марта, пт
пт500:00−6сз378619 0.0 1006526
03:00−7сз378648 0.0 1007560
06:00−8сз3685100 0.1 1007541
09:00−8сз3684100 0.1 1009468
12:00−7ссз3476100 0.1 1011683
15:00−6с3571100 0.1 1013966
18:00−7ссз147370 0.0 1014190
21:00−8зсз238174 0.0 101699
6 марта, сб
сб600:00−9зсз248872 0.0 1016147
03:00−9з259549 0.0 1017181
06:00−9з259511 0.0 1016182
09:00−9з37886 0.0 1015346
12:00−4зюз486924 0.0 1013895
15:00−3юз6106960 0.0 1009989
18:00−4юз81690100 0.6 10021308
21:00−2юз71696100 3.3 9951277
7 марта, вс
вс700:00−1з91795100 4.2 9891242
03:00−4зсз7146899 4.6 9891154
06:00−9з6156154 0.0 9901619
09:00−9з5136627 0.0 9881527
12:00−9з6118899 0.3 9881054
15:00−5с4780100 0.9 9911135
18:00−7с3883100 0.1 995807
21:00−8с51189100 0.4 1000853